Regional Weather Roundup
Issued by NWS

Home | Current Version | Previous Version | Graphics & Text | Print | Product List | Glossary On
Versions: 1 2 3 4 5 6 7 8 9 10 11 12 13 14 15 16 17 18 19 20 21 22 23 24 25 26 27 28 29 30 31 32 33 34 35 36 37 38 39 40 41 42 43 44 45 46 47 48 49 50
000
ASUS43 KOAX 270710
RWRNE

WEATHER ROUNDUP FOR NEBRASKA
NATIONAL WEATHER SERVICE OMAHA NE
100 AM CST TUE JAN 27 2015

NOTES: SATELLITE DATA IS BEING USED TO AUGMENT CLOUD COVER ABOVE
       12000 FEET.
       "FAIR" INDICATES FEW OR NO CLOUDS BELOW 12,000 FEET WITH NO
       SIGNIFICANT WEATHER AND/OR OBSTRUCTIONS TO VISIBILITY.

  * THESE STATIONS DO NOT REPORT WEATHER SUCH AS RAIN...SNOW OR FOG.

NEZ001>004-019>022-054>056-270800-
NEBRASKA PANHANDLE

CITY           SKY/WX    TMP DP  RH WIND       PRES   REMARKS
SCOTTSBLUFF    CLEAR     38  28  67 NW5       30.11S WCI  34
ALLIANCE       CLEAR     32  27  81 SW7       30.07F WCI  26
CHADRON        CLEAR     35  28  75 SW6       30.05S WCI  30
KIMBALL        CLEAR     37  27  65 W10       30.13F WCI  30
SIDNEY         CLEAR     34  26  72 W10       30.12F WCI  26
$$

NEZ057>060-069>072-079>082-270800-
SOUTHWEST NEBRASKA

CITY           SKY/WX    TMP DP  RH WIND       PRES   REMARKS
NORTH PLATTE   CLEAR     29  25  85 CALM      30.08S
IMPERIAL       PTCLDY    39  28  64 W8        30.09F WCI  33
LEXINGTON      CLEAR     30  26  83 CALM      30.08S
MCCOOK         CLEAR     36  29  75 W9        30.08F WCI  29
OGALLALA       CLEAR     29  27  92 SW5       30.09F WCI  24
$$

NEZ005>010-023>029-035>040-094-270800-
NORTH CENTRAL NEBRASKA

CITY           SKY/WX    TMP DP  RH WIND       PRES   REMARKS
VALENTINE      CLEAR     31  27  85 SW5       30.02F WCI  26
AINSWORTH      CLEAR     31  28  89 SW7       30.03F WCI  24
BROKEN BOW     CLEAR     29  25  85 CALM      30.06F
O`NEILL        CLEAR     34  30  85 CALM      30.07R
ORD            CLEAR     27  24  89 CALM      30.06R
THEDFORD       CLEAR     35  31  86 CALM      30.05F
$$

NEZ041-046>049-061>064-073>077-083>087-270800-
SOUTH CENTRAL NEBRASKA

CITY           SKY/WX    TMP DP  RH WIND       PRES   REMARKS
GRAND ISLAND   CLEAR     31  27  85 W3        30.08R
AURORA         CLEAR     34  29  83 CALM      30.07S
HASTINGS       CLEAR     37  28  70 SW7       30.07S WCI  32
HEBRON         CLEAR     30  25  81 CALM      30.09R
HOLDREGE       FAIR      36  26  68 CALM      30.07F
KEARNEY *      PTCLDY    37  28  70 W6        30.08S WCI  33
YORK           CLEAR     28  27  93 W7        30.08R WCI  21
$$

NEZ011>018-030>034-042>045-270800-
NORTHEAST NEBRASKA

CITY           SKY/WX    TMP DP  RH WIND       PRES   REMARKS
NORFOLK        CLEAR     31  28  89 NW3       30.06R
ALBION         CLEAR     28  24  86 NW5       30.08R WCI  23
BLAIR          CLEAR     38  32  80 NW3       30.05R
COLUMBUS *     CLEAR     30  25  80 W5        30.08R WCI  25
FREMONT        CLEAR     30  28  92 CALM      30.07S
TEKAMAH        CLEAR     33  29  85 NW9       30.06S WCI  25
WAYNE          CLEAR     27  26  94 CALM      30.07S
$$

NEZ050>053-065>068-078-088>093-270800-
SOUTHEAST NEBRASKA

CITY           SKY/WX    TMP DP  RH WIND       PRES   REMARKS
LINCOLN        CLEAR     32  26  78 CALM      30.08R
OMAHA EPPLEY   CLEAR     33  31  92 N6        30.06R WCI  28
BEATRICE       CLEAR     29  24  82 CALM      30.07R
FALLS CITY     CLEAR     35  29  78 NW8       30.06R WCI  29
NEBRASKA CITY  CLEAR     39  29  67 NW10      30.06R WCI  33
PLATTSMOUTH    CLEAR     36  31  81 NW7       30.06R WCI  31
$$

NEZ044-045-051>053-067-270800-
OMAHA AREA

CITY           SKY/WX    TMP DP  RH WIND       PRES   REMARKS
OMAHA EPPLEY   CLEAR     33  31  92 N6        30.06R WCI  28
BLAIR          CLEAR     38  32  80 NW3       30.05R
FREMONT        CLEAR     30  28  92 CALM      30.07S
MILLARD        CLEAR     38  32  81 NW5       30.06S WCI  34
OFFUTT AFB     CLEAR     33  30  87 NW5       30.06R WCI  29
PLATTSMOUTH    CLEAR     36  31  81 NW7       30.06R WCI  31
WAHOO          FAIR      34  29  80 NW8       30.07S WCI  27
$$


USA.gov is the U.S. government's official web portal to all federal, state and local government web resources and services.